Regional Weather Roundup
Issued by NWS Lake Charles, LA

Home | Current Version | Previous Version | Text Only | Print | Product List | Glossary On
Versions: 1 2 3 4 5 6 7 8 9 10 11 12 13 14 15 16 17 18 19 20 21 22 23 24 25 26 27 28 29 30 31 32 33 34 35 36 37 38 39 40 41 42 43 44 45 46 47 48 49 50
650
ASUS44 KLCH 290010
RWRLCH
REGIONAL WEATHER ROUNDUP
NATIONAL WEATHER SERVICE LAKE CHARLES LA
700 PM CDT SUN MAY 28 2017

Note: "fair" indicates few or no clouds below 12,000 feet with no
significant weather and/or obstructions to visibility.


ACROSS SOUTHEAST TEXAS

CITY           SKY/WX    TMP DP  RH WIND       PRES   REMARKS
BEAUMONT       MOSUNNY   82  75  79 S15       29.80F
BEAUMONT CITY  FAIR      83  74  73 MISG      29.81F
ORANGE         PTCLDY    83  75  78 S14       29.82F
JASPER         MOSUNNY   84  76  76 CALM      29.87R
$$

ACROSS CENTRAL LOUISIANA

CITY           SKY/WX    TMP DP  RH WIND       PRES   REMARKS
LEESVILLE      CLOUDY    82  74  77 CALM      29.87R
FULLERTON      FAIR      82  75  79 CALM      29.85R
ALEXANDRIA INT CLOUDY    81  72  74 SE10      29.86R
ESLER FIELD    MOSUNNY   81  73  76 SE3       29.88R
DERIDDER       MOCLDY    83  73  70 E3        29.86R
OAKDALE        MOCLDY    82  75  79 SE5       29.84F
OPELOUSAS      FAIR      83  74  74 SE10      29.84F
$$

ACROSS SOUTHWEST AND SOUTH CENTRAL LOUISIANA

CITY           SKY/WX    TMP DP  RH WIND       PRES   REMARKS
SULPHUR        PTCLDY    83  74  74 S18       29.81F
LAKE CHARLES   SUNNY     83  74  74 S14       29.81F
CHENNAULT INT  MOSUNNY   84  75  74 S18       29.81F
CAMERON PHI    CLEAR     81  77  89 S17G23    29.82F HAZE
DEQUINCY       MOCLDY    83  74  73 S9G17     29.82F
JENNINGS       FAIR      83  74  73 SE10      29.83F
LAFAYETTE      SUNNY     84  73  69 S14G21    29.86F
NEW IBERIA     SUNNY     85  68  56 S18       29.88F
ABBEVILLE      NOT AVBL
PATTERSON      CLOUDY    84  74  71 S10       29.91F
SALT POINT       N/A     83  76  79 VRB3      29.90S
$$

SELECTED SITES ACROSS THE REGION

CITY           SKY/WX    TMP DP  RH WIND       PRES   REMARKS
HOUSTON BUSH   PTSUNNY   87  74  64 S14       29.80F
HOUSTON HOBBY  PTSUNNY   84  75  74 S12       29.81F
GALVESTON      CLOUDY    83  79  88 SE14      29.84S
COLLEGE STAT   PTSUNNY   87  75  67 S12       29.80F
CONROE         MOSUNNY   85  75  72 S9        29.84R
HUNTSVILLE     CLOUDY    86  74  67 S7        29.83R
LUFKIN         CLOUDY    83  74  74 SE3       29.85R
SHREVEPORT     TSTM      67  65  93 E21       29.83F
MONROE         CLOUDY    79  72  79 N5        29.92R
NATCHEZ MS     SUNNY     81  71  71 SW5       29.90R
BATON ROUGE    SUNNY     83  74  74 E10       29.88F
N.O. INTL ARPT CLOUDY    84  73  69 SE16      29.93R
SLIDELL        CLOUDY    85  74  69 SE7       29.92F
$$

MARINE REPORTS

STATION/POSITION TIME  SKY/WX   TEMP    WIND        PRES    VSBY
                                AIR SEA DIR/SP/G
                 (UTC)          (F)     (DEG/KT/KT) (MB)    (MI)
BUOY 30 S HIGH I 2250            80 81  150/ 12/ 16 1011.5
WVE H/P(F/S)=  3/ 6

SEA RIM ST PARK  2300            81     170/ 11/ 15 1012.2F
PORT ARTHUR      2348            81 81  180/ 11/ 16 1009.6F
SABINE PASS N    2348            81 84  160/ 18/ 21 1011.1F
TEXAS POINT      NOT AVBL
CALCASIEU PASS   2348            80 82  180/ 17/ 20   N/A
LK CHARLES BEACH 2348            84 79              1009.7F
MARSH ISLAND     2300            82                   N/A
FRESH WATER LOCK 2348            81 84  150/ 11/ 13 1011.7F
AMERADA PASS     2348            82 79  140/  9/ 13 1013.5R
$$




USA.gov is the U.S. government's official web portal to all federal, state and local government web resources and services.